Location: Tamazert
(32.6352°N, 5.2072°W)
Time: 03:13:25
(UTC+00:00)

Vanguard 1 Rocket - Pass Details

Date: 07 October 2022
Orbit: 650 x 4225 km, 34.3° (Epoch: 05 December)

Event Time Altitude Azimuth Distance (km) Brightness Sun altitude
Rises 23:38:42 0° 286° (WNW) 6,874 12.1 -62.3°
Reaches altitude 10° 23:44:06 10° 285° (WNW) 5,279 11.4 -62.6°
Enters shadow 23:46:50 16° 283° (WNW) 4,432 10.9 -62.7°
Maximum altitude 23:57:22 68° 206° (SSW) 1,586 - -63.0°
Drops below altitude 10° 00:04:05 10° 124° (SE) 2,801 - -63.1°
Sets 00:06:07 0° 121° (ESE) 3,523 - -63.2°
